Tracking 25734 objects as of 28-May-2022
HD Live streaming from Space Station
objects crossing your sky now

SL-8 DEB

Track SL-8 DEB now!
10-day predictions


NORAD ID: 19048
Int'l Code: 1988-029C
Perigee: 685.7 km
Apogee: 702.7 km
Inclination: 74.0 °
Period: 98.5 minutes
Semi major axis: 7065 km
RCS: 0.0085 m2 (small)
Launch date: April 5, 1988
Source: Commonwealth of Independent States (former USSR) (CIS)
Launch site: PLESETSK MISSILE AND SPACE COMPLEX (PKMTR)

Note: This is SATELLITE DEBRIS
aabbcc
Your satellite tracking list
Your tracking list is empty




NASA's NSSDC Master Catalog

Two Line Element Set (TLE):
1 19048U 88029C   22147.87199352  .00001968  00000-0  39904-3 0  9991
2 19048  74.0263  63.5903 0012018 128.4712 298.4644 14.61889479806210
Source of the keplerian elements: AFSPC